User: anonymous   Login
Location: *
(29.1167°S, 130.0000°E)
Time: 14:39:46
(UTC+00:00)
Language:

GPS 2-04 Rocket1 - Orbit

View from above orbital plane
View from above orbital plane
View from above satellite
View from above satellite

Ground track
Ground track

The orbit data is extracted from the following two-line orbital elements,

1 20303U 89085B   19262.52559774 +.00001241 +00000-0 +42492-4 0  9995
2 20303 035.6258 277.8363 0097645 279.3750 079.5948 15.26466129627019
Epoch (UTC): 19 September 2019 12:36:51
Eccentricity: 0.0097645
inclination: 35.6258°
perigee height: 419 km
apogee height: 553 km
right ascension of ascending node: 277.8363°
argument of perigee: 279.3750°
revolutions per day: 15.26466129
mean anomaly at epoch: 79.5948°
orbit number at epoch: 62701

The dashed part of the orbit path shows where the satellite is in the earth's shadow,  

DLR